Location: Auckland
(36.8670°S, 174.7670°E)
Time: 04:06:35
(UTC+12:00)

Tiros 1 despin weight - Pass Details

Date: 20 July 2019
Orbit: 594 x 642 km, 48.2° (Epoch: 23 August)

Event Time Altitude Azimuth Distance (km) Brightness Sun altitude
Rises 05:05:37 0° 234° (SW) 2,875 - -28.3°
Reaches altitude 10° 05:08:14 10° 220° (SW) 1,976 - -27.8°
Maximum altitude 05:12:03 26° 163° (SSE) 1,233 - -27.0°
Exits shadow 05:12:17 26° 158° (SSE) 1,237 ? -27.0°
Drops below altitude 10° 05:15:54 10° 106° (ESE) 1,994 ? -26.2°
Sets 05:18:33 0° 93° (E) 2,907 ? -25.7°
